| time (UTC) | temp C | wind direction | speed KPH | gust KPH | rain 1hr cm | rain 24hr cm | rain mn cm | humidity % | barometer mb |
| 20260506011506 | 11 | 27 | 8.0 | 14.5 | 0.00 | 0.03 | 0.00 | 80 | 1011.6 |
| 20260506010506 | 11 | 31 | 6.4 | 12.9 | 0.00 | 0.05 | 0.00 | 81 | 1011.6 |
| 20260506010006 | 11 | 26 | 6.4 | 12.9 | 0.00 | 0.05 | 0.00 | 81 | 1011.5 |
| 20260506005505 | 10 | 32 | 6.4 | 9.7 | 0.00 | 0.05 | 0.00 | 81 | 1011.6 |
| 20260506005006 | 10 | 31 | 3.2 | 9.7 | 0.00 | 0.05 | 0.00 | 81 | 1011.6 |
| 20260506004006 | 11 | 29 | 1.6 | 8.0 | 0.00 | 0.05 | 0.00 | 80 | 1011.6 |
| 20260506003006 | 11 | 37 | 1.6 | 4.8 | 0.00 | 0.05 | 0.00 | 79 | 1011.5 |
| 20260506002506 | 11 | 31 | 3.2 | 4.8 | 0.00 | 0.05 | 0.00 | 78 | 1011.5 |
| 20260506001005 | 11 | 24 | 3.2 | 8.0 | 0.00 | 0.08 | 0.00 | 77 | 1011.5 |
| 20260505235505 | 11 | 22 | 3.2 | 9.7 | 0.00 | 0.08 | 0.00 | 76 | 1011.4 |
| 20260505234506 | 11 | 22 | 3.2 | 9.7 | 0.00 | 0.10 | 0.00 | 76 | 1011.4 |
| 20260505234006 | 11 | 29 | 3.2 | 9.7 | 0.00 | 0.10 | 0.00 | 75 | 1011.5 |
| 20260505233506 | 11 | 22 | 3.2 | 9.7 | 0.00 | 0.10 | 0.00 | 75 | 1011.5 |
| 20260505232005 | 11 | 15 | 6.4 | 11.3 | 0.00 | 0.13 | 0.00 | 74 | 1011.5 |
| 20260505231506 | 11 | 17 | 6.4 | 9.7 | 0.00 | 0.13 | 0.00 | 74 | 1011.6 |
| 20260505231006 | 11 | 14 | 6.4 | 11.3 | 0.00 | 0.13 | 0.00 | 74 | 1011.5 |
| 20260505230506 | 11 | 14 | 6.4 | 12.9 | 0.00 | 0.13 | 0.00 | 73 | 1011.5 |
| 20260505225505 | 11 | 19 | 3.2 | 11.3 | 0.00 | 0.15 | 0.15 | 73 | 1011.5 |
| 20260505225006 | 11 | 23 | 3.2 | 12.9 | 0.00 | 0.15 | 0.15 | 73 | 1011.5 |
| 20260505224506 | 11 | 11 | 6.4 | 12.9 | 0.00 | 0.15 | 0.15 | 73 | 1011.4 |
| 20260505224006 | 11 | 11 | 6.4 | 11.3 | 0.00 | 0.15 | 0.15 | 73 | 1011.4 |
| 20260505223010 | 12 | 22 | 6.4 | 11.3 | 0.00 | 0.15 | 0.15 | 72 | 1011.5 |
| 20260505222506 | 12 | 12 | 6.4 | 11.3 | 0.00 | 0.15 | 0.15 | 72 | 1011.5 |
| 20260505222006 | 12 | 10 | 6.4 | 11.3 | 0.00 | 0.15 | 0.15 | 72 | 1011.6 |
| 20260505221006 | 12 | 13 | 6.4 | 11.3 | 0.00 | 0.18 | 0.15 | 71 | 1011.5 |
| 20260505220505 | 12 | 6 | 6.4 | 11.3 | 0.00 | 0.18 | 0.15 | 71 | 1011.5 |
| 20260505220006 | 12 | 1 | 6.4 | 11.3 | 0.00 | 0.18 | 0.15 | 71 | 1011.5 |
| 20260505215006 | 12 | 2 | 6.4 | 12.9 | 0.00 | 0.18 | 0.15 | 70 | 1011.5 |
| 20260505214506 | 12 | 2 | 6.4 | 12.9 | 0.00 | 0.18 | 0.15 | 70 | 1011.5 |
| 20260505214005 | 12 | 359 | 6.4 | 11.3 | 0.00 | 0.18 | 0.15 | 70 | 1011.5 |
| 20260505213506 | 12 | 3 | 6.4 | 12.9 | 0.00 | 0.18 | 0.15 | 70 | 1011.5 |
| 20260505213006 | 12 | 9 | 6.4 | 12.9 | 0.00 | 0.18 | 0.15 | 69 | 1011.6 |
| 20260505212506 | 12 | 5 | 6.4 | 11.3 | 0.00 | 0.18 | 0.15 | 69 | 1011.5 |
| 20260505211506 | 12 | 2 | 6.4 | 16.1 | 0.00 | 0.18 | 0.15 | 68 | 1011.6 |
| 20260505210506 | 13 | 354 | 3.2 | 9.7 | 0.00 | 0.18 | 0.15 | 68 | 1011.5 |
| 20260505210006 | 13 | 8 | 6.4 | 9.7 | 0.00 | 0.18 | 0.15 | 68 | 1011.5 |
| 20260505205006 | 13 | 10 | 3.2 | 11.3 | 0.00 | 0.18 | 0.15 | 68 | 1011.5 |
| 20260505204505 | 13 | 15 | 3.2 | 11.3 | 0.00 | 0.18 | 0.15 | 68 | 1011.5 |
| 20260505203505 | 13 | 17 | 6.4 | 16.1 | 0.00 | 0.18 | 0.15 | 67 | 1011.4 |
| 20260505203006 | 13 | 15 | 6.4 | 11.3 | 0.00 | 0.18 | 0.15 | 67 | 1011.3 |
| 20260505202505 | 13 | 15 | 6.4 | 12.9 | 0.00 | 0.18 | 0.15 | 66 | 1011.3 |
| 20260505202006 | 13 | 15 | 6.4 | 14.5 | 0.00 | 0.18 | 0.15 | 66 | 1011.3 |
| 20260505200506 | 13 | 16 | 6.4 | 11.3 | 0.00 | 0.18 | 0.15 | 67 | 1011.2 |
| 20260505195506 | 13 | 16 | 6.4 | 11.3 | 0.00 | 0.18 | 0.15 | 67 | 1011.1 |
| 20260505195006 | 13 | 15 | 6.4 | 11.3 | 0.00 | 0.18 | 0.15 | 67 | 1011.1 |
| 20260505194505 | 13 | 13 | 6.4 | 11.3 | 0.00 | 0.18 | 0.15 | 67 | 1011.1 |
| 20260505194006 | 13 | 17 | 6.4 | 11.3 | 0.00 | 0.18 | 0.15 | 67 | 1011.0 |
| 20260505193506 | 13 | 25 | 6.4 | 11.3 | 0.00 | 0.18 | 0.15 | 67 | 1011.0 |
| 20260505193005 | 13 | 21 | 6.4 | 11.3 | 0.00 | 0.18 | 0.15 | 66 | 1011.0 |
| 20260505192506 | 13 | 15 | 6.4 | 11.3 | 0.00 | 0.18 | 0.15 | 66 | 1011.0 |
| 20260505191505 | 13 | 23 | 6.4 | 14.5 | 0.00 | 0.18 | 0.15 | 66 | 1010.9 |
| 20260505190506 | 14 | 17 | 6.4 | 11.3 | 0.00 | 0.18 | 0.15 | 66 | 1010.8 |
| 20260505190005 | 14 | 20 | 6.4 | 11.3 | 0.00 | 0.18 | 0.15 | 67 | 1010.8 |
| 20260505185005 | 14 | 20 | 6.4 | 11.3 | 0.00 | 0.18 | 0.15 | 66 | 1010.8 |
| 20260505184506 | 14 | 18 | 3.2 | 8.0 | 0.00 | 0.18 | 0.15 | 66 | 1010.7 |
| 20260505184005 | 14 | 21 | 6.4 | 12.9 | 0.00 | 0.18 | 0.15 | 66 | 1010.7 |
| 20260505183006 | 14 | 24 | 6.4 | 9.7 | 0.00 | 0.18 | 0.15 | 65 | 1010.6 |
| 20260505182506 | 14 | 17 | 6.4 | 11.3 | 0.00 | 0.18 | 0.15 | 65 | 1010.6 |
| 20260505182006 | 14 | 11 | 6.4 | 11.3 | 0.00 | 0.18 | 0.15 | 65 | 1010.5 |
| 20260505181506 | 14 | 17 | 3.2 | 9.7 | 0.00 | 0.18 | 0.15 | 65 | 1010.5 |
| 20260505181005 | 14 | 19 | 3.2 | 11.3 | 0.00 | 0.18 | 0.15 | 65 | 1010.5 |
| 20260505180505 | 14 | 19 | 3.2 | 11.3 | 0.00 | 0.18 | 0.15 | 65 | 1010.6 |
| 20260505180006 | 14 | 20 | 3.2 | 9.7 | 0.00 | 0.18 | 0.15 | 65 | 1010.6 |
| 20260505175505 | 14 | 16 | 6.4 | 9.7 | 0.00 | 0.18 | 0.15 | 65 | 1010.6 |
| 20260505175006 | 15 | 22 | 6.4 | 12.9 | 0.00 | 0.18 | 0.15 | 64 | 1010.6 |
| 20260505174505 | 15 | 30 | 6.4 | 12.9 | 0.00 | 0.18 | 0.15 | 64 | 1010.6 |
| 20260505174005 | 15 | 27 | 6.4 | 14.5 | 0.00 | 0.18 | 0.15 | 64 | 1010.7 |
| 20260505173506 | 15 | 29 | 6.4 | 16.1 | 0.00 | 0.18 | 0.15 | 63 | 1010.6 |
| 20260505173006 | 15 | 23 | 6.4 | 16.1 | 0.00 | 0.18 | 0.15 | 63 | 1010.6 |
| 20260505172505 | 15 | 12 | 8.0 | 11.3 | 0.00 | 0.18 | 0.15 | 63 | 1010.6 |
| 20260505172006 | 15 | 8 | 8.0 | 16.1 | 0.00 | 0.18 | 0.15 | 63 | 1010.7 |
| 20260505171506 | 15 | 3 | 8.0 | 16.1 | 0.00 | 0.18 | 0.15 | 63 | 1010.7 |
| 20260505171005 | 15 | 359 | 8.0 | 14.5 | 0.00 | 0.18 | 0.15 | 62 | 1010.7 |
| 20260505170006 | 15 | 7 | 8.0 | 16.1 | 0.00 | 0.18 | 0.15 | 62 | 1010.8 |
| 20260505165506 | 15 | 6 | 9.7 | 16.1 | 0.00 | 0.18 | 0.15 | 62 | 1010.8 |
| 20260505165006 | 15 | 5 | 8.0 | 16.1 | 0.00 | 0.18 | 0.15 | 61 | 1010.8 |
| 20260505164505 | 15 | 5 | 6.4 | 14.5 | 0.00 | 0.18 | 0.15 | 62 | 1010.8 |
| 20260505164005 | 15 | 7 | 6.4 | 14.5 | 0.00 | 0.18 | 0.15 | 61 | 1010.8 |
| 20260505163008 | 15 | 24 | 8.0 | 14.5 | 0.00 | 0.18 | 0.15 | 61 | 1010.7 |
| 20260505162506 | 15 | 22 | 6.4 | 14.5 | 0.00 | 0.18 | 0.15 | 62 | 1010.7 |
| 20260505162006 | 15 | 18 | 6.4 | 14.5 | 0.00 | 0.18 | 0.15 | 63 | 1010.8 |
| 20260505161506 | 15 | 17 | 6.4 | 14.5 | 0.00 | 0.18 | 0.15 | 63 | 1010.8 |
| 20260505161006 | 15 | 13 | 8.0 | 14.5 | 0.00 | 0.18 | 0.15 | 63 | 1010.7 |
| 20260505160506 | 15 | 13 | 8.0 | 14.5 | 0.00 | 0.18 | 0.15 | 62 | 1010.7 |
| 20260505153006 | 15 | 66 | 6.4 | 14.5 | 0.00 | 0.18 | 0.15 | 64 | 1010.8 |
| 20260505152505 | 15 | 57 | 3.2 | 9.7 | 0.00 | 0.18 | 0.15 | 64 | 1010.8 |
| 20260505151505 | 15 | 65 | 8.0 | 12.9 | 0.00 | 0.18 | 0.15 | 63 | 1011.0 |
| 20260505151005 | 15 | 55 | 6.4 | 12.9 | 0.00 | 0.18 | 0.15 | 63 | 1010.9 |
| 20260505150506 | 15 | 39 | 6.4 | 12.9 | 0.00 | 0.18 | 0.15 | 63 | 1010.9 |
| 20260505140506 | 16 | 8 | 8.0 | 16.1 | 0.00 | 0.18 | 0.15 | 61 | 1011.0 |
| 20260505125006 | 16 | 14 | 9.7 | 17.7 | 0.00 | 0.18 | 0.15 | 59 | 1011.3 |
| 20260505124506 | 17 | 10 | 8.0 | 17.7 | 0.00 | 0.18 | 0.15 | 59 | 1011.2 |
| 20260505124005 | 17 | 14 | 9.7 | 24.1 | 0.00 | 0.18 | 0.15 | 58 | 1011.2 |
| 20260505123506 | 17 | 32 | 9.7 | 24.1 | 0.00 | 0.18 | 0.15 | 56 | 1011.2 |
| 20260505122506 | 18 | 52 | 9.7 | 25.7 | 0.00 | 0.18 | 0.15 | 56 | 1011.2 |
| 20260505122005 | 18 | 49 | 9.7 | 25.7 | 0.00 | 0.18 | 0.15 | 57 | 1011.2 |
| 20260505121506 | 18 | 36 | 9.7 | 24.1 | 0.00 | 0.18 | 0.15 | 56 | 1011.2 |
| 20260505121005 | 18 | 61 | 9.7 | 25.7 | 0.00 | 0.18 | 0.15 | 59 | 1011.2 |
| 20260505120506 | 18 | 66 | 11.3 | 25.7 | 0.00 | 0.18 | 0.15 | 56 | 1011.2 |
| 20260505120006 | 18 | 54 | 11.3 | 24.1 | 0.00 | 0.18 | 0.15 | 57 | 1011.3 |
| 20260505115006 | 17 | 43 | 11.3 | 22.5 | 0.00 | 0.18 | 0.15 | 60 | 1011.3 |
| 20260505114506 | 17 | 42 | 11.3 | 22.5 | 0.00 | 0.18 | 0.15 | 60 | 1011.4 |
| 20260505114006 | 17 | 46 | 9.7 | 17.7 | 0.00 | 0.18 | 0.15 | 60 | 1011.3 |
| 20260505113506 | 17 | 45 | 9.7 | 17.7 | 0.00 | 0.18 | 0.15 | 60 | 1011.4 |
| 20260505113005 | 17 | 48 | 9.7 | 20.9 | 0.00 | 0.18 | 0.15 | 59 | 1011.4 |
| 20260505112505 | 17 | 55 | 9.7 | 20.9 | 0.00 | 0.18 | 0.15 | 60 | 1011.5 |
| 20260505112006 | 17 | 53 | 8.0 | 16.1 | 0.00 | 0.18 | 0.15 | 60 | 1011.5 |
| 20260505111005 | 17 | 48 | 11.3 | 24.1 | 0.00 | 0.18 | 0.15 | 61 | 1011.6 |
| 20260505101006 | 15 | 60 | 11.3 | 24.1 | 0.00 | 0.18 | 0.15 | 70 | 1012.1 |
| 20260505100505 | 15 | 52 | 11.3 | 22.5 | 0.00 | 0.18 | 0.15 | 73 | 1012.0 |
| 20260505100005 | 15 | 48 | 11.3 | 22.5 | 0.00 | 0.18 | 0.15 | 73 | 1012.1 |
| 20260505095506 | 15 | 46 | 9.7 | 27.4 | 0.00 | 0.18 | 0.15 | 71 | 1012.1 |
| 20260505094505 | 15 | 48 | 9.7 | 27.4 | 0.00 | 0.18 | 0.15 | 74 | 1012.2 |
| 20260505094005 | 15 | 37 | 9.7 | 27.4 | 0.00 | 0.18 | 0.15 | 77 | 1012.2 |
| 20260505093505 | 14 | 46 | 11.3 | 24.1 | 0.00 | 0.18 | 0.15 | 77 | 1012.3 |
| 20260505093006 | 13 | 50 | 12.9 | 24.1 | 0.00 | 0.18 | 0.15 | 77 | 1012.3 |
| 20260505092505 | 13 | 40 | 11.3 | 22.5 | 0.00 | 0.18 | 0.15 | 76 | 1012.3 |
| 20260505091506 | 13 | 13 | 9.7 | 17.7 | 0.00 | 0.18 | 0.15 | 79 | 1012.3 |
| 20260505091007 | 13 | 11 | 9.7 | 20.9 | 0.00 | 0.18 | 0.15 | 78 | 1012.3 |
| 20260505090506 | 13 | 11 | 9.7 | 20.9 | 0.00 | 0.18 | 0.15 | 78 | 1012.3 |
| 20260505090006 | 13 | 22 | 8.0 | 17.7 | 0.00 | 0.18 | 0.15 | 79 | 1012.3 |
| 20260505085006 | 13 | 35 | 9.7 | 24.1 | 0.00 | 0.18 | 0.15 | 79 | 1012.3 |
| 20260505084006 | 13 | 35 | 9.7 | 20.9 | 0.00 | 0.18 | 0.15 | 81 | 1012.3 |
| 20260505083505 | 13 | 27 | 9.7 | 20.9 | 0.00 | 0.18 | 0.15 | 80 | 1012.3 |
| 20260505083005 | 13 | 25 | 9.7 | 16.1 | 0.00 | 0.18 | 0.15 | 81 | 1012.3 |
| 20260505082506 | 13 | 29 | 9.7 | 17.7 | 0.00 | 0.18 | 0.15 | 82 | 1012.3 |
| 20260505082005 | 12 | 35 | 9.7 | 22.5 | 0.00 | 0.18 | 0.15 | 83 | 1012.4 |
| 20260505081506 | 12 | 36 | 6.4 | 22.5 | 0.00 | 0.18 | 0.15 | 85 | 1012.5 |
| 20260505081006 | 12 | 24 | 6.4 | 11.3 | 0.00 | 0.18 | 0.15 | 87 | 1012.5 |
| 20260505080505 | 12 | 22 | 8.0 | 17.7 | 0.00 | 0.18 | 0.15 | 87 | 1012.6 |
| 20260505080005 | 12 | 25 | 8.0 | 17.7 | 0.00 | 0.18 | 0.15 | 87 | 1012.6 |
| 20260505075006 | 11 | 24 | 8.0 | 17.7 | 0.00 | 0.18 | 0.15 | 88 | 1012.7 |
| 20260505074506 | 11 | 17 | 8.0 | 17.7 | 0.00 | 0.18 | 0.15 | 88 | 1012.6 |
| 20260505074005 | 11 | 12 | 8.0 | 16.1 | 0.00 | 0.18 | 0.15 | 88 | 1012.5 |
| 20260505073506 | 11 | 11 | 8.0 | 17.7 | 0.00 | 0.18 | 0.15 | 88 | 1012.5 |
| 20260505073006 | 11 | 19 | 8.0 | 17.7 | 0.00 | 0.18 | 0.15 | 88 | 1012.5 |
| 20260505072505 | 11 | 30 | 8.0 | 16.1 | 0.00 | 0.18 | 0.15 | 89 | 1012.5 |
| 20260505072005 | 11 | 26 | 8.0 | 16.1 | 0.00 | 0.18 | 0.15 | 90 | 1012.5 |
| 20260505071006 | 11 | 24 | 9.7 | 16.1 | 0.00 | 0.18 | 0.15 | 90 | 1012.6 |
| 20260505070006 | 11 | 11 | 6.4 | 12.9 | 0.00 | 0.18 | 0.15 | 93 | 1012.7 |
| 20260505065506 | 10 | 14 | 6.4 | 12.9 | 0.00 | 0.18 | 0.15 | 93 | 1012.6 |
| 20260505065006 | 10 | 22 | 8.0 | 14.5 | 0.00 | 0.18 | 0.15 | 94 | 1012.7 |
| 20260505064005 | 10 | 359 | 6.4 | 11.3 | 0.00 | 0.18 | 0.15 | 95 | 1012.7 |
| 20260505063506 | 10 | 359 | 3.2 | 11.3 | 0.00 | 0.18 | 0.15 | 95 | 1012.6 |
| 20260505063006 | 9 | 357 | 3.2 | 11.3 | 0.00 | 0.18 | 0.15 | 95 | 1012.6 |
| 20260505062506 | 9 | 2 | 3.2 | 9.7 | 0.00 | 0.18 | 0.15 | 95 | 1012.6 |
| 20260505061505 | 9 | 17 | 3.2 | 9.7 | 0.00 | 0.18 | 0.15 | 95 | 1012.5 |
| 20260505061005 | 9 | 31 | 3.2 | 9.7 | 0.00 | 0.18 | 0.15 | 95 | 1012.5 |
| 20260505060506 | 9 | 34 | 1.6 | 9.7 | 0.00 | 0.18 | 0.15 | 95 | 1012.5 |
| 20260505060006 | 9 | 45 | 3.2 | 8.0 | 0.00 | 0.18 | 0.15 | 95 | 1012.6 |
| 20260505055506 | 9 | 43 | 3.2 | 8.0 | 0.00 | 0.18 | 0.15 | 96 | 1012.6 |
| 20260505054505 | 8 | 34 | 1.6 | 8.0 | 0.00 | 0.18 | 0.15 | 96 | 1012.5 |
| 20260505054005 | 8 | 34 | 3.2 | 9.7 | 0.00 | 0.18 | 0.15 | 96 | 1012.5 |
| 20260505053505 | 8 | 19 | 3.2 | 9.7 | 0.00 | 0.18 | 0.15 | 96 | 1012.4 |
| 20260505052505 | 8 | 12 | 3.2 | 11.3 | 0.00 | 0.18 | 0.15 | 95 | 1012.3 |
| 20260505052005 | 8 | 13 | 6.4 | 9.7 | 0.00 | 0.18 | 0.15 | 95 | 1012.3 |
| 20260505051505 | 8 | 16 | 6.4 | 11.3 | 0.00 | 0.18 | 0.15 | 95 | 1012.4 |
| 20260505050505 | 8 | 11 | 6.4 | 12.9 | 0.00 | 0.18 | 0.15 | 95 | 1012.4 |
| 20260505041505 | 9 | 39 | 1.6 | 8.0 | 0.00 | 0.18 | 0.15 | 95 | 1012.3 |
| 20260505041006 | 9 | 36 | 1.6 | 8.0 | 0.00 | 0.18 | 0.15 | 95 | 1012.4 |
| 20260505040505 | 10 | 33 | 3.2 | 8.0 | 0.00 | 0.18 | 0.15 | 95 | 1012.4 |
| 20260505040006 | 10 | 30 | 3.2 | 8.0 | 0.00 | 0.18 | 0.15 | 95 | 1012.4 |
| 20260505035505 | 10 | 27 | 1.6 | 8.0 | 0.00 | 0.18 | 0.15 | 95 | 1012.5 |
| 20260505035006 | 10 | 21 | 1.6 | 4.8 | 0.00 | 0.18 | 0.15 | 95 | 1012.5 |
| 20260505034506 | 10 | 15 | 1.6 | 3.2 | 0.00 | 0.18 | 0.15 | 95 | 1012.5 |
| 20260505034006 | 10 | 0 | 0.0 | 3.2 | 0.00 | 0.18 | 0.15 | 95 | 1012.6 |
| 20260505033506 | 10 | 0 | 0.0 | 3.2 | 0.00 | 0.18 | 0.15 | 95 | 1012.7 |
| 20260505032505 | 10 | 15 | 1.6 | 3.2 | 0.00 | 0.18 | 0.15 | 95 | 1012.7 |
| 20260505032006 | 10 | 0 | 0.0 | 3.2 | 0.00 | 0.18 | 0.15 | 95 | 1012.7 |
| 20260505031506 | 10 | 0 | 0.0 | 3.2 | 0.00 | 0.18 | 0.15 | 95 | 1012.7 |
| 20260505030506 | 10 | 0 | 0.0 | 1.6 | 0.00 | 0.18 | 0.15 | 95 | 1012.6 |
| 20260505030005 | 10 | 0 | 0.0 | 1.6 | 0.00 | 0.18 | 0.15 | 95 | 1012.7 |
| 20260505025506 | 10 | 0 | 0.0 | 3.2 | 0.00 | 0.18 | 0.15 | 95 | 1012.7 |
| 20260505025006 | 10 | 0 | 0.0 | 3.2 | 0.00 | 0.18 | 0.15 | 95 | 1012.7 |
| 20260505024506 | 10 | 15 | 1.6 | 3.2 | 0.00 | 0.18 | 0.15 | 95 | 1012.7 |
| 20260505024006 | 10 | 16 | 1.6 | 3.2 | 0.00 | 0.18 | 0.15 | 95 | 1012.7 |
| 20260505023506 | 10 | 10 | 1.6 | 4.8 | 0.00 | 0.18 | 0.15 | 95 | 1012.6 |
| 20260505022505 | 11 | 0 | 0.0 | 3.2 | 0.00 | 0.18 | 0.15 | 95 | 1012.6 |
| 20260505021006 | 11 | 356 | 1.6 | 3.2 | 0.03 | 0.18 | 0.15 | 95 | 1012.7 |
| 20260505015506 | 11 | 0 | 0.0 | 1.6 | 0.05 | 0.18 | 0.15 | 95 | 1012.6 |
| 20260505015006 | 11 | 0 | 0.0 | 3.2 | 0.05 | 0.18 | 0.15 | 95 | 1012.7 |
| 20260505014506 | 11 | 0 | 0.0 | 3.2 | 0.05 | 0.18 | 0.15 | 95 | 1012.7 |
| 20260505014006 | 11 | 0 | 0.0 | 3.2 | 0.05 | 0.18 | 0.15 | 95 | 1012.7 |
| 20260505013505 | 11 | 0 | 0.0 | 1.6 | 0.05 | 0.18 | 0.15 | 95 | 1012.8 |
| 20260505013005 | 11 | 0 | 0.0 | 3.2 | 0.05 | 0.18 | 0.15 | 95 | 1012.9 |
| 20260505012507 | 11 | 0 | 0.0 | 3.2 | 0.05 | 0.18 | 0.15 | 95 | 1013.0 |
| 20260505012006 | 11 | 23 | 1.6 | 3.2 | 0.05 | 0.15 | 0.13 | 95 | 1012.9 |